{"data":{"norad_id":32393,"intl_designator":"2007-065A","name":"COSMOS 2434 (721)","alt_names":[],"object_type":"PAYLOAD","status":"ACTIVE","operator":null,"country":"CIS","launch_date":"2007-12-25","launch_site_code":"TYMSC","launch_vehicle":null,"mission":null,"orbit_class":"UNKNOWN","rcs_meters":5.0119,"size_class":null,"mass_kg":null,"dimensions":null,"purposes":["nav"],"wikipedia_slug":null,"has_3d_model":false,"image_url":null,"decayed_at":null,"tle_current":{"epoch":"2026-09-18T02:43:23.244672Z","epoch_age_seconds":220667,"freshness":"STALE","line1":"1 32393U 07065A   26261.11346348  .00000000  00000+0  00000+0 0  9993","line2":"2 32393  64.3188 188.7833 0001751  40.2628  67.6000  2.13101315145754","mean_motion":2.13101315,"eccentricity":0.0001751,"inclination_deg":64.3188,"raan_deg":188.7833,"arg_perigee_deg":40.2628,"mean_anomaly_deg":67.6,"bstar":0,"rev_number":14575,"period_min":675.73491979625,"perigee_km":19125.475625418,"apogee_km":19134.408554716,"semimajor_km":25508.079090067,"source":"CELESTRAK","updated_at":"2026-09-20T09:00:46.273665Z"}}}